Weather History for Bentonville, AR

Change the Weather History Date:

Tuesday, October 16, 2012

  Actual Average Record
Temperature  
Mean Temperature 65 °F -  
Max Temperature 75 °F 71 °F 85 °F (1953)
Min Temperature 55 °F 46 °F 27 °F (1952)
Growing Degree Days 15 (Base 50)    
Moisture  
Dew Point 44 °F    
Average Humidity 47    
Maximum Humidity 67    
Minimum Humidity 27    
Precipitation  
Precipitation 0.00 in - - ()
Sea Level Pressure  
Sea Level Pressure 29.79 in    
Wind  
Wind Speed 7 mph (South)    
Max Wind Speed 18 mph    
Max Gust Speed 25 mph    
Visibility 10 miles    
Events      
Averages and records for this station are not official NWS values.
T = Trace of Precipitation, MM = Missing Value Source: NWS Daily Summary

Daily Weather History Graph

Daily Weather History Graph

Search for Another Location

Airport:

Trip Planner

Search our weather history database for the weather conditions in past years. The results will help you decide how hot, cold, wet, or windy it might be!

Date:

Astronomy

Oct. 16, 2012 Rise Set
Actual Time 7:25 AM CDT 6:38 PM CDT
Civil Twilight 6:59 AM CDT 7:04 PM CDT
Nautical Twilight 6:29 AM CDT 7:34 PM CDT
Astronomical Twilight 5:59 AM CDT 8:04 PM CDT
Moon 8:45 AM CDT (10/16) 7:28 PM CDT (10/16)
Length of Visible Light 12h 05m
Length of Day
11h 13m
New Moon, 2% of the Moon is Illuminated
Oct 16
New Moon
Oct 21
First Quarter
Oct 29
Full
Nov 6
Last Quarter
Nov 13
New

Hourly Weather History & Observations

Time (CDT) Temp. Dew Point Humidity Pressure Visibility Wind Dir Wind Speed Gust Speed Precip Events Conditions
12:15 AM 60.8 °F 46.4 °F 59% 29.93 in 10.0 mi SSW 4.6 mph - N/A   Clear
12:55 AM 60.8 °F 46.4 °F 59% 29.93 in 10.0 mi SSW 4.6 mph - N/A   Clear
1:15 AM 57.2 °F 46.4 °F 67% 29.92 in 10.0 mi SSW 4.6 mph - N/A   Clear
1:55 AM 59.0 °F 46.4 °F 63% 29.92 in 10.0 mi SSW 3.5 mph - N/A   Clear
2:15 AM 59.0 °F 46.4 °F 63% 29.91 in 10.0 mi South 3.5 mph - N/A   Clear
2:35 AM 59.0 °F 46.4 °F 63% 29.91 in 10.0 mi South 3.5 mph - N/A   Clear
2:56 AM 59.0 °F 46.4 °F 63% 29.90 in 10.0 mi South 4.6 mph - N/A   Clear
3:15 AM 57.2 °F 46.4 °F 67% 29.89 in 10.0 mi South 4.6 mph - N/A   Clear
3:35 AM 59.0 °F 44.6 °F 59% 29.89 in 10.0 mi South 4.6 mph - N/A   Clear
4:15 AM 57.2 °F 44.6 °F 63% 29.88 in 10.0 mi South 4.6 mph - N/A   Clear
4:35 AM 57.2 °F 44.6 °F 63% 29.87 in 10.0 mi South 4.6 mph - N/A   Clear
5:15 AM 57.2 °F 44.6 °F 63% 29.88 in 10.0 mi South 4.6 mph - N/A   Clear
5:35 AM 57.2 °F 44.6 °F 63% 29.88 in 10.0 mi South 5.8 mph - N/A   Clear
5:55 AM 55.4 °F 44.6 °F 67% 29.87 in 10.0 mi South 5.8 mph - N/A   Clear
6:16 AM 57.2 °F 44.6 °F 63% 29.87 in 10.0 mi South 4.6 mph - N/A   Clear
6:35 AM 57.2 °F 44.6 °F 63% 29.88 in 10.0 mi South 5.8 mph - N/A   Clear
7:16 AM 55.4 °F 44.6 °F 67% 29.87 in 10.0 mi South 5.8 mph - N/A   Clear
7:55 AM 57.2 °F 44.6 °F 63% 29.88 in 10.0 mi South 6.9 mph - N/A   Clear
8:15 AM 59.0 °F 44.6 °F 59% 29.87 in 10.0 mi South 6.9 mph - N/A   Clear
8:35 AM 59.0 °F 44.6 °F 59% 29.88 in 10.0 mi South 5.8 mph - N/A   Clear
8:55 AM 60.8 °F 44.6 °F 55% 29.88 in 10.0 mi South 6.9 mph - N/A   Clear
9:15 AM 62.6 °F 44.6 °F 52% 29.88 in 10.0 mi South 8.1 mph - N/A   Clear
9:55 AM 66.2 °F 44.6 °F 46% 29.89 in 10.0 mi SSW 9.2 mph - N/A   Clear
10:15 AM 68.0 °F 44.6 °F 43% 29.89 in 10.0 mi SSW 10.4 mph 16.1 mph N/A   Clear
10:35 AM 69.8 °F 44.6 °F 40% 29.88 in 10.0 mi SSW 11.5 mph 16.1 mph N/A   Clear
10:56 AM 71.6 °F 42.8 °F 35% 29.87 in 10.0 mi South 11.5 mph 17.3 mph N/A   Clear
11:15 AM 71.6 °F 42.8 °F 35% 29.86 in 10.0 mi South 13.8 mph 19.6 mph N/A   Clear
11:35 AM 73.4 °F 41.0 °F 31% 29.85 in 10.0 mi SSW 15.0 mph 23.0 mph N/A   Clear
11:55 AM 73.4 °F 39.2 °F 29% 29.84 in 10.0 mi SSW 16.1 mph 21.9 mph N/A   Clear
12:15 PM 75.2 °F 39.2 °F 27% 29.84 in 10.0 mi South 11.5 mph 23.0 mph N/A   Clear
12:35 PM 75.2 °F 39.2 °F 27% 29.83 in 10.0 mi South 17.3 mph 21.9 mph N/A   Clear
12:56 PM 75.2 °F 39.2 °F 27% 29.82 in 10.0 mi South 15.0 mph 23.0 mph N/A   Clear
1:15 PM 75.2 °F 39.2 °F 27% 29.80 in 10.0 mi South 15.0 mph 21.9 mph N/A   Clear
1:35 PM 75.2 °F 39.2 °F 27% 29.79 in 10.0 mi South 15.0 mph 23.0 mph N/A   Clear
2:15 PM 75.2 °F 41.0 °F 29% 29.77 in 10.0 mi SSW 13.8 mph 21.9 mph N/A   Clear
2:35 PM 75.2 °F 41.0 °F 29% 29.76 in 10.0 mi SSW 16.1 mph 24.2 mph N/A   Clear
2:56 PM 75.2 °F 41.0 °F 29% 29.74 in 10.0 mi South 13.8 mph 23.0 mph N/A   Clear
3:15 PM 75.2 °F 42.8 °F 31% 29.74 in 10.0 mi South 18.4 mph 25.3 mph N/A   Clear
3:35 PM 75.2 °F 42.8 °F 31% 29.73 in 10.0 mi SSW 11.5 mph 21.9 mph N/A   Clear
4:15 PM 75.2 °F 42.8 °F 31% 29.70 in 10.0 mi SSW 12.7 mph 21.9 mph N/A   Clear
4:35 PM 75.2 °F 41.0 °F 29% 29.69 in 10.0 mi South 10.4 mph 20.7 mph N/A   Clear
5:15 PM 75.2 °F 42.8 °F 31% 29.67 in 10.0 mi South 10.4 mph 17.3 mph N/A   Clear
5:35 PM 73.4 °F 42.8 °F 33% 29.67 in 10.0 mi SSW 13.8 mph 18.4 mph N/A   Clear
5:55 PM 73.4 °F 41.0 °F 31% 29.66 in 10.0 mi South 10.4 mph 17.3 mph N/A   Clear
6:15 PM 71.6 °F 41.0 °F 33% 29.66 in 10.0 mi South 9.2 mph 19.6 mph N/A   Clear
6:16 PM 71.6 °F 41.0 °F 33% 29.66 in 10.0 mi South 9.2 mph 19.6 mph N/A   Clear
6:35 PM 69.8 °F 41.0 °F 35% 29.66 in 10.0 mi SSW 5.8 mph - N/A   Clear
6:55 PM 68.0 °F 42.8 °F 40% 29.67 in 10.0 mi South 4.6 mph - N/A   Clear
7:15 PM 64.4 °F 42.8 °F 45% 29.67 in 10.0 mi SSE 5.8 mph - N/A   Clear
7:35 PM 62.6 °F 44.6 °F 52% 29.67 in 10.0 mi SSE 5.8 mph - N/A   Mostly Cloudy
8:35 PM 64.4 °F 44.6 °F 49% 29.68 in 10.0 mi South 6.9 mph - N/A   Mostly Cloudy
8:55 PM 64.4 °F 44.6 °F 49% 29.67 in 10.0 mi South 8.1 mph - N/A   Mostly Cloudy
9:16 PM 64.4 °F 44.6 °F 49% 29.67 in 10.0 mi South 6.9 mph - N/A   Scattered Clouds
9:35 PM 64.4 °F 44.6 °F 49% 29.67 in 10.0 mi South 6.9 mph - N/A   Scattered Clouds
9:55 PM 62.6 °F 44.6 °F 52% 29.68 in 10.0 mi South 5.8 mph - N/A   Partly Cloudy
10:35 PM 60.8 °F 44.6 °F 55% 29.67 in 10.0 mi South 8.1 mph - N/A   Clear
10:55 PM 60.8 °F 46.4 °F 59% 29.67 in 10.0 mi South 6.9 mph - N/A   Clear
11:15 PM 60.8 °F 46.4 °F 59% 29.67 in 10.0 mi South 6.9 mph - N/A   Clear
11:35 PM 60.8 °F 46.4 °F 59% 29.67 in 10.0 mi South 3.5 mph - N/A   Clear
11:55 PM 57.2 °F 46.4 °F 67% 29.66 in 10.0 mi South 4.6 mph - N/A   Clear